This is the latest recevied weather packets stored in our database for station/object HB9TJR-3. If no packets are shown the sender has not sent any weather packets the latest 1 day(s).
| Time | Temp. | Humidity | Pressure | Rain* | Wind** | Luminosity | Snow |
|---|---|---|---|---|---|---|---|
| 1778079334 | 6.11° C | 92% | 859.4 hPa | 0 mm | - | - | - |
| 1778078374 | 6.11° C | 92% | 859.4 hPa | 0 mm | - | - | - |
| 1778076454 | 6.11° C | 92% | 859.5 hPa | 0 mm | - | - | - |
| 1778075494 | 6.11° C | 92% | 859.1 hPa | 0 mm | - | - | - |
| 1778074534 | 6.11° C | 90% | 859.4 hPa | 0 mm | - | - | - |
| 1778073574 | 6.11° C | 90% | 859.4 hPa | 0 mm | - | - | - |
| 1778072614 | 6.11° C | 91% | 859.1 hPa | 0 mm | - | - | - |
| 1778071654 | 6.11° C | 91% | 858.9 hPa | 0 mm | - | - | - |
| 1778070694 | 6.11° C | 93% | 858.9 hPa | 0 mm | - | - | - |
| 1778069734 | 6.11° C | 90% | 858.7 hPa | 0 mm | - | - | - |
| 1778068774 | 6.11° C | 92% | 858.7 hPa | 0 mm | - | - | - |
| 1778066854 | 6.11° C | 91% | 858.6 hPa | 0 mm | - | - | - |
| 1778065894 | 6.11° C | 90% | 858.6 hPa | 0 mm | - | - | - |
| 1778064934 | 6.11° C | 90% | 858.7 hPa | 0 mm | - | - | - |
| 1778063015 | 6.11° C | 88% | 858.6 hPa | 0 mm | - | - | - |
| 1778062054 | 6.11° C | 87% | 858.6 hPa | 0 mm | - | - | - |
| 1778061094 | 6.11° C | 87% | 858.5 hPa | 0 mm | - | - | - |
| 1778060134 | 6.11° C | 88% | 858.3 hPa | 0 mm | - | - | - |
| 1778059174 | 6.67° C | 89% | 858.1 hPa | 0 mm | - | - | - |
| 1778058214 | 6.67° C | 88% | 857.9 hPa | 0 mm | - | - | - |
| 1778057254 | 6.67° C | 90% | 857.7 hPa | 0 mm | - | - | - |
| 1778056294 | 6.67° C | 92% | 857.5 hPa | 0 mm | - | - | - |
| 1778055334 | 6.67° C | 93% | 857.4 hPa | 0 mm | - | - | - |
| 1778054374 | 6.67° C | 92% | 857.3 hPa | 0 mm | - | - | - |
| 1778053414 | 6.67° C | 92% | 857.2 hPa | 0 mm | - | - | - |
* Rain latest hour (hover to see other rain measurements)
** Current wind speed in m/s (hover to see current wind gust speed)